This is the latest recevied weather packets stored in our database for station/object KB9HUO. If no packets are shown the sender has not sent any weather packets the latest 10 day(s).
| Time | Temp. | Humidity | Pressure | Rain* | Wind** | Luminosity | Snow |
|---|---|---|---|---|---|---|---|
| 1788295202 | 33.89° C | 57% | 1018.1 hPa | 0 mm | - | 55 W/m² | - |
| 1788294897 | 33.89° C | 55% | 1018 hPa | 0 mm | - | 62 W/m² | - |
| 1788294592 | 33.89° C | 56% | 1018 hPa | 0 mm | - | 58 W/m² | - |
| 1788294287 | 33.89° C | 55% | 1018.1 hPa | 0 mm | - | 139 W/m² | - |
| 1788293983 | 33.89° C | 57% | 1018 hPa | 0 mm | - | 107 W/m² | - |
| 1788293678 | 33.89° C | 55% | 1018.3 hPa | 0 mm | - | 57 W/m² | - |
| 1788293378 | 33.89° C | 55% | 1018.1 hPa | 0 mm | - | 47 W/m² | - |
| 1788293073 | 33.89° C | 55% | 1018.1 hPa | 0 mm | - | 48 W/m² | - |
| 1788292772 | 34.44° C | 56% | 1018.2 hPa | 0 mm | - | 48 W/m² | - |
| 1788292471 | 34.44° C | 58% | 1018.3 hPa | 0 mm | - | 51 W/m² | - |
| 1788292165 | 34.44° C | 58% | 1018.1 hPa | 0 mm | - | 109 W/m² | - |
| 1788291860 | 34.44° C | 57% | 1018.3 hPa | 0 mm | - | 62 W/m² | - |
| 1788291557 | 34.44° C | 58% | 1018.6 hPa | 0 mm | - | 54 W/m² | - |
| 1788291255 | 33.89° C | 58% | 1018.7 hPa | 0 mm | - | 57 W/m² | - |
| 1788290955 | 34.44° C | 56% | 1018.5 hPa | 0 mm | - | 92 W/m² | - |
| 1788290651 | 33.89° C | 59% | 1018.7 hPa | 0 mm | - | 74 W/m² | - |
| 1788290347 | 34.44° C | 55% | 1018.9 hPa | 0 mm | - | 151 W/m² | - |
| 1788290042 | 34.44° C | 55% | 1018.8 hPa | 0 mm | - | 250 W/m² | - |
| 1788289739 | 34.44° C | 56% | 1018.9 hPa | 0 mm | - | 116 W/m² | - |
| 1788289438 | 34.44° C | 54% | 1018.9 hPa | 0 mm | - | 241 W/m² | - |
| 1788289137 | 35° C | 53% | 1018.9 hPa | 0 mm | - | 82 W/m² | - |
| 1788288835 | 35° C | 54% | 1019 hPa | 0 mm | - | 235 W/m² | - |
| 1788288531 | 35° C | 54% | 1019.1 hPa | 0 mm | - | 328 W/m² | - |
| 1788288227 | 35° C | 53% | 1019 hPa | 0 mm | - | 636 W/m² | - |
| 1788287922 | 35° C | 57% | 1019 hPa | 0 mm | - | 635 W/m² | - |
* Rain latest hour (hover to see other rain measurements)
** Current wind speed in m/s (hover to see current wind gust speed)